Regional Weather Roundup
Issued by NWS

Home | Current Version | Previous Version | Graphics & Text | Print | Product List | Glossary On
Versions: 1 2 3 4 5 6 7 8 9 10 11 12 13 14 15 16 17 18 19 20 21 22 23 24 25 26 27 28 29 30 31 32 33 34 35 36 37 38 39 40 41 42 43 44 45 46 47 48 49 50
000
ASUS43 KLMK 281402
RWRKY
KENTUCKY REGIONAL WEATHER ROUNDUP
NATIONAL WEATHER SERVICE LOUISVILLE KY
1000 AM EDT THU AUG 28 2014

NOTE "FAIR" INDICATES FEW OR NO CLOUDS BELOW 12,000 FEET
WITH NO SIGNIFICANT WEATHER AND/OR OBSTRUCTIONS TO VISIBILITY.

KYZ001>023-026-027-061>063-070>075-281500-
WESTERN AND SOUTH CENTRAL KENTUCKY

CITY           SKY/WX    TMP DP  RH WIND       PRES   REMARKS
PADUCAH        SUNNY     82  73  74 SE6       30.04S
HENDERSON      MOSUNNY   79  72  78 E5        30.04F
OWENSBORO      SUNNY     80  75  84 E7        30.05S
HOPKINSVILLE   SUNNY     80  77  93 VRB1      30.05F
BOWLING GREEN  SUNNY     81  70  69 CALM      30.06S
GLASGOW        SUNNY     79  69  73 CALM      30.07S
$$

KYZ024-025-028>034-038-045-046-053-281500-
NORTH CENTRAL KENTUCKY

CITY           SKY/WX    TMP DP  RH WIND       PRES   REMARKS
LOUISVILLE/SDF MOSUNNY   80  72  76 CALM      30.06F
LOUISVILLE/LOU SUNNY     78  71  79 CALM      30.07F
FORT KNOX      SUNNY     77  75  93 E6        30.06S
$$

KYZ035>037-039>044-047>052-055>060-089>105-281500-
NORTHEAST KENTUCKY

CITY           SKY/WX    TMP DP  RH WIND       PRES   REMARKS
LEXINGTON      SUNNY     80  72  76 E6        30.08F
COVINGTON      PTSUNNY   74  62  66 NE9       30.11R
FRANKFORT      SUNNY     75  71  87 E5        30.07F
$$

KYZ054-064>069-076>088-106>120-281500-
SOUTHEAST KENTUCKY

CITY           SKY/WX    TMP DP  RH WIND       PRES   REMARKS
JACKSON        FOG       71  70  96 VRB3      30.11R VSB 3/4
LONDON         SUNNY     77  69  76 VRB3      30.10S
SOMERSET       PTSUNNY   72  72 100 CALM      30.09F FOG
MIDDLESBORO    SUNNY     71  67  85 CALM      30.11S
MONTICELLO     MOSUNNY   76  74  93 CALM      30.10S FOG
$$



USA.gov is the U.S. government's official web portal to all federal, state and local government web resources and services.